TimeMST,TemperatureF,Dew PointF,Humidity,Sea Level PressureIn,VisibilityMPH,Wind Direction,Wind SpeedMPH,Gust SpeedMPH,PrecipitationIn,Events,Conditions,WindDirDegrees,DateUTC
12:53 AM,18.0,10.0,71,29.84,10.0,NW,5.8,-,N/A,,Clear,320,2014-02-08 07:53:00
1:53 AM,17.1,8.1,68,29.85,10.0,NNW,4.6,-,N/A,,Clear,340,2014-02-08 08:53:00
2:53 AM,18.0,6.1,60,29.86,10.0,Calm,Calm,-,N/A,,Clear,0,2014-02-08 09:53:00
3:53 AM,16.0,6.1,65,29.88,10.0,Calm,Calm,-,N/A,,Scattered Clouds,0,2014-02-08 10:53:00
4:53 AM,12.9,6.1,74,29.89,10.0,Calm,Calm,-,N/A,,Scattered Clouds,0,2014-02-08 11:53:00
5:53 AM,16.0,5.0,62,29.88,10.0,Calm,Calm,-,N/A,,Overcast,0,2014-02-08 12:53:00
6:53 AM,14.0,5.0,67,29.89,10.0,Calm,Calm,-,N/A,,Overcast,0,2014-02-08 13:53:00
7:53 AM,15.1,6.1,68,29.90,10.0,Calm,Calm,-,N/A,,Overcast,0,2014-02-08 14:53:00
8:53 AM,19.9,8.1,60,29.87,10.0,South,3.5,-,N/A,,Overcast,190,2014-02-08 15:53:00
9:53 AM,21.0,7.0,55,29.89,10.0,Calm,Calm,-,N/A,,Overcast,0,2014-02-08 16:53:00
10:53 AM,21.9,7.0,53,29.91,8.0,Variable,3.5,-,0.00,Snow,Light Snow,0,2014-02-08 17:53:00
11:21 AM,21.0,12.0,68,29.76,2.0,Calm,Calm,-,0.00,Snow,Light Snow,0,2014-02-08 18:21:00
11:23 AM,21.0,12.0,68,29.76,1.8,Calm,Calm,-,0.00,Snow,Light Snow,0,2014-02-08 18:23:00
11:53 AM,21.0,15.1,78,29.91,1.8,Calm,Calm,-,0.01,Snow,Light Snow,0,2014-02-08 18:53:00
11:58 AM,21.9,14.0,72,29.76,3.0,Calm,Calm,-,0.00,Snow,Light Snow,0,2014-02-08 18:58:00
12:08 PM,21.9,14.0,72,29.76,1.8,Calm,Calm,-,0.00,Snow,Light Snow,0,2014-02-08 19:08:00
12:33 PM,19.9,15.1,81,29.77,1.0,East,6.9,-,0.00,Snow,Light Snow,100,2014-02-08 19:33:00
12:48 PM,19.4,15.8,86,29.76,0.5,ESE,6.9,-,0.01,Fog-Snow,Snow,110,2014-02-08 19:48:00
12:53 PM,19.0,15.1,85,29.93,0.5,East,6.9,-,0.01,Fog-Snow,Snow,100,2014-02-08 19:53:00
1:02 PM,19.9,15.1,81,29.77,1.0,ESE,5.8,-,0.00,Snow,Light Snow,110,2014-02-08 20:02:00
1:21 PM,19.0,15.1,85,29.77,0.5,ESE,5.8,-,0.01,Fog-Snow,Snow,120,2014-02-08 20:21:00
1:53 PM,19.0,15.1,85,29.95,0.5,ESE,6.9,-,0.02,Fog-Snow,Snow,120,2014-02-08 20:53:00
2:19 PM,19.0,15.1,85,29.79,0.8,East,4.6,-,0.01,Snow,Light Snow,100,2014-02-08 21:19:00
2:31 PM,19.0,15.1,85,29.79,1.0,ESE,4.6,-,0.01,Snow,Light Snow,120,2014-02-08 21:31:00
2:37 PM,19.0,15.1,85,29.79,0.8,ESE,5.8,-,0.01,Snow,Light Snow,110,2014-02-08 21:37:00
2:42 PM,19.0,15.1,85,29.80,0.5,East,5.8,-,0.01,Fog-Snow,Snow,100,2014-02-08 21:42:00
2:51 PM,19.4,15.8,86,29.80,0.5,East,5.8,-,0.02,Fog-Snow,Snow,100,2014-02-08 21:51:00
2:53 PM,19.0,15.1,85,29.97,0.5,ESE,5.8,-,0.02,Fog-Snow,Snow,110,2014-02-08 21:53:00
3:02 PM,18.0,15.1,88,29.80,1.0,East,6.9,-,0.00,Snow,Light Snow,100,2014-02-08 22:02:00
3:48 PM,15.8,12.2,86,29.82,1.0,East,6.9,-,0.01,Snow,Light Snow,90,2014-02-08 22:48:00
3:53 PM,16.0,12.0,84,30.01,1.2,East,8.1,-,0.01,Snow,Light Snow,90,2014-02-08 22:53:00
4:28 PM,15.1,10.9,84,29.84,0.8,ENE,8.1,-,0.00,Snow,Light Snow,70,2014-02-08 23:28:00
4:46 PM,15.1,10.9,84,29.85,0.5,NE,3.5,-,0.01,Fog-Snow,Snow,50,2014-02-08 23:46:00
4:53 PM,15.1,10.9,84,30.05,0.5,Calm,Calm,-,0.01,Fog-Snow,Snow,0,2014-02-08 23:53:00
5:03 PM,15.1,10.9,84,29.85,0.5,Calm,Calm,-,0.01,Fog-Snow,Snow,0,2014-02-09 00:03:00
5:35 PM,14.0,10.9,88,29.88,1.0,Calm,Calm,-,0.02,Snow,Light Snow,0,2014-02-09 00:35:00
5:53 PM,14.0,10.9,88,30.10,1.2,Calm,Calm,-,0.02,Snow,Light Snow,0,2014-02-09 00:53:00
6:23 PM,15.1,10.0,80,29.91,0.8,Calm,Calm,-,0.01,Snow,Light Snow,0,2014-02-09 01:23:00
6:46 PM,14.0,10.0,84,29.93,0.8,WSW,5.8,-,0.02,Snow,Light Snow,250,2014-02-09 01:46:00
6:50 PM,14.0,10.4,86,29.92,1.0,WSW,8.1,-,0.02,Snow,Light Snow,240,2014-02-09 01:50:00
6:53 PM,12.9,10.0,88,30.14,0.8,WSW,8.1,-,0.02,Snow,Light Snow,250,2014-02-09 01:53:00
7:06 PM,12.9,9.0,84,29.93,1.0,WSW,4.6,-,0.01,Snow,Light Snow,240,2014-02-09 02:06:00
7:30 PM,10.9,7.0,84,29.95,1.5,WSW,5.8,-,0.01,Snow,Light Snow,240,2014-02-09 02:30:00
7:44 PM,10.9,6.1,81,29.95,2.5,Variable,6.9,-,0.02,Snow,Light Snow,0,2014-02-09 02:44:00
7:53 PM,10.0,6.1,84,30.17,1.5,SW,5.8,-,0.02,Snow,Light Snow,220,2014-02-09 02:53:00
8:13 PM,10.0,6.1,84,29.96,2.5,WSW,4.6,-,0.00,Snow,Light Snow,240,2014-02-09 03:13:00
8:30 PM,9.0,5.0,84,29.97,2.0,SW,6.9,-,0.00,Snow,Light Snow,230,2014-02-09 03:30:00
8:53 PM,8.1,3.9,83,30.19,2.5,SSW,6.9,-,0.00,Snow,Light Snow,210,2014-02-09 03:53:00
9:15 PM,8.1,3.9,83,29.98,1.8,SW,5.8,-,0.00,Snow,Light Snow,220,2014-02-09 04:15:00
9:49 PM,6.8,1.4,79,29.98,1.8,SSW,4.6,-,0.01,Snow,Light Snow,200,2014-02-09 04:49:00
9:53 PM,6.1,1.9,83,30.21,1.8,SSW,6.9,-,0.01,Snow,Light Snow,210,2014-02-09 04:53:00
10:04 PM,6.1,1.9,83,29.98,2.5,South,4.6,-,0.00,Snow,Light Snow,190,2014-02-09 05:04:00
10:14 PM,5.0,1.9,87,29.98,4.0,SSW,5.8,-,0.00,Snow,Light Snow,200,2014-02-09 05:14:00
10:24 PM,5.0,1.0,84,29.98,5.0,SSW,4.6,-,0.00,Snow,Light Snow,200,2014-02-09 05:24:00
10:39 PM,3.9,1.0,88,29.97,2.0,South,3.5,-,0.00,Snow,Light Snow,190,2014-02-09 05:39:00
10:53 PM,3.9,-0.0,84,30.20,2.5,SSW,4.6,-,0.00,Snow,Light Snow,210,2014-02-09 05:53:00
11:05 PM,3.9,-0.0,84,29.98,3.0,Calm,Calm,-,0.00,Snow,Light Snow,0,2014-02-09 06:05:00
11:39 PM,3.0,-0.0,87,29.97,2.5,SSW,3.5,-,0.01,Snow,Light Snow,210,2014-02-09 06:39:00
11:49 PM,3.2,-0.4,85,29.97,5.0,Calm,Calm,-,0.01,Snow,Light Snow,0,2014-02-09 06:49:00
11:53 PM,3.0,-0.0,87,30.20,5.0,Calm,Calm,-,0.01,Snow,Light Snow,0,2014-02-09 06:53:00